FW5225 Weather Reports


time (UTC)temp
C
wind
direction
speed
KPH
gust
KPH
rain 1hr
cm
rain 24hr
cm
rain mn
cm
humidity
%
barometer
mb
20260504050543 25 234 4.8 17.7 0.00 0.00 0.00 28 1006.7
20260504045541 26 289 8.0 20.9 0.00 0.00 0.00 27 1006.7
20260504045041 26 217 6.4 19.3 0.00 0.00 0.00 27 1006.7
20260504044542 26 259 4.8 16.1 0.00 0.00 0.00 27 1006.6
20260504044043 26 229 4.8 17.7 0.00 0.00 0.00 26 1006.6
20260504043542 26 276 8.0 17.7 0.00 0.00 0.00 26 1006.6
20260504043049 26 251 6.4 14.5 0.00 0.00 0.00 26 1006.6
20260504042540 26 273 4.8 17.7 0.00 0.00 0.00 25 1006.6
20260504042042 26 235 4.8 17.7 0.00 0.00 0.00 24 1006.5
20260504041541 26 257 8.0 17.7 0.00 0.00 0.00 24 1006.5
20260504041040 26 171 8.0 20.9 0.00 0.00 0.00 23 1006.5
20260504040540 26 238 9.7 20.9 0.00 0.00 0.00 23 1006.3
20260504040040 26 258 6.4 27.4 0.00 0.00 0.00 22 1006.3
20260504035540 26 279 9.7 24.1 0.00 0.00 0.00 22 1006.2
20260504035044 27 297 9.7 20.9 0.00 0.00 0.00 22 1006.1
20260504034547 27 247 9.7 20.9 0.00 0.00 0.00 21 1006.0
20260504034039 27 181 8.0 17.7 0.00 0.00 0.00 21 1005.9
20260504033539 27 245 6.4 14.5 0.00 0.00 0.00 21 1005.9
20260504033041 27 260 8.0 22.5 0.00 0.00 0.00 21 1005.8
20260504032538 27 281 9.7 22.5 0.00 0.00 0.00 21 1005.6
20260504032043 27 218 8.0 20.9 0.00 0.00 0.00 20 1005.6
20260504031538 27 290 8.0 24.1 0.00 0.00 0.00 20 1005.4
20260504031039 27 269 11.3 25.7 0.00 0.00 0.00 20 1005.4
20260504030538 27 238 8.0 19.3 0.00 0.00 0.00 20 1005.4
20260504030045 27 265 6.4 24.1 0.00 0.00 0.00 19 1005.0
20260504025538 27 246 11.3 24.1 0.00 0.00 0.00 19 1005.0
20260504025038 28 311 11.3 22.5 0.00 0.00 0.00 19 1004.8
20260504024537 28 209 8.0 22.5 0.00 0.00 0.00 18 1004.6
20260504024037 28 244 9.7 20.9 0.00 0.00 0.00 18 1004.6
20260504023537 28 298 6.4 27.4 0.00 0.00 0.00 18 1004.5
20260504023037 28 347 8.0 27.4 0.00 0.00 0.00 18 1004.5
20260504022537 28 209 9.7 22.5 0.00 0.00 0.00 18 1004.4
20260504022036 28 254 8.0 22.5 0.00 0.00 0.00 17 1004.2
20260504021537 29 190 8.0 20.9 0.00 0.00 0.00 17 1004.3
20260504021037 29 271 9.7 24.1 0.00 0.00 0.00 17 1004.3
20260504020536 29 284 8.0 24.1 0.00 0.00 0.00 16 1004.1
20260504020043 29 235 8.0 27.4 0.00 0.00 0.00 17 1004.0
20260504015536 29 268 9.7 27.4 0.00 0.00 0.00 17 1004.1
20260504015036 29 257 6.4 29.0 0.00 0.00 0.00 17 1004.1
20260504014539 30 262 8.0 24.1 0.00 0.00 0.00 17 1003.9
20260504014035 30 243 8.0 22.5 0.00 0.00 0.00 17 1003.7
20260504013536 30 229 6.4 20.9 0.00 0.00 0.00 17 1003.9
20260504013037 30 269 6.4 24.1 0.00 0.00 0.00 17 1003.8
20260504012535 30 286 9.7 25.7 0.00 0.00 0.00 17 1003.8
20260504012037 30 255 11.3 22.5 0.00 0.00 0.00 17 1003.7
20260504011534 30 243 8.0 20.9 0.00 0.00 0.00 17 1003.8
20260504011035 31 307 8.0 19.3 0.00 0.00 0.00 16 1003.8
20260504010534 31 226 8.0 19.3 0.00 0.00 0.00 16 1003.8
20260504010034 31 226 8.0 20.9 0.00 0.00 0.00 16 1003.8
20260504005535 31 277 8.0 20.9 0.00 0.00 0.00 15 1003.8
20260504005035 31 247 9.7 20.9 0.00 0.00 0.00 15 1003.9
20260504004534 32 268 9.7 27.4 0.00 0.00 0.00 15 1003.8
20260504004033 32 223 8.0 27.4 0.00 0.00 0.00 15 1003.9
20260504003532 32 232 8.0 24.1 0.00 0.00 0.00 15 1003.9
20260504003032 32 300 6.4 19.3 0.00 0.00 0.00 14 1003.9
20260504002532 32 265 9.7 24.1 0.00 0.00 0.00 14 1003.9
20260504002032 32 299 11.3 24.1 0.00 0.00 0.00 14 1003.8
20260504001536 32 213 9.7 19.3 0.00 0.00 0.00 14 1003.9
20260504001033 32 224 8.0 22.5 0.00 0.00 0.00 14 1003.9
20260504000533 33 256 8.0 22.5 0.00 0.00 0.00 13 1003.8
20260504000032 33 267 6.4 17.7 0.00 0.00 0.00 14 1003.8
20260503235532 33 223 8.0 19.3 0.00 0.00 0.00 13 1003.8
20260503235032 33 232 6.4 22.5 0.00 0.00 0.00 13 1003.8
20260503234532 33 250 9.7 24.1 0.00 0.00 0.00 13 1003.9
20260503234034 33 279 9.7 24.1 0.00 0.00 0.00 13 1003.8
20260503233532 33 246 8.0 19.3 0.00 0.00 0.00 13 1003.7
20260503233031 33 219 8.0 20.9 0.00 0.00 0.00 13 1003.7
20260503232531 33 202 6.4 20.9 0.00 0.00 0.00 13 1003.7
20260503232032 33 260 8.0 22.5 0.00 0.00 0.00 13 1003.6
20260503231530 33 277 8.0 17.7 0.00 0.00 0.00 13 1003.6
20260503231030 33 286 8.0 17.7 0.00 0.00 0.00 13 1003.7
20260503230530 33 267 8.0 17.7 0.00 0.00 0.00 13 1003.7
20260503230030 33 214 8.0 19.3 0.00 0.00 0.00 13 1003.9
20260503225530 34 295 8.0 14.5 0.00 0.00 0.00 13 1003.8
20260503225029 34 222 6.4 14.5 0.00 0.00 0.00 13 1003.9
20260503224527 34 343 3.2 12.9 0.00 0.00 0.00 13 1004.0
20260503224027 34 232 1.6 17.7 0.00 0.00 0.00 13 1004.0
20260503223526 35 272 6.4 17.7 0.00 0.00 0.00 13 1004.1
20260503223026 35 211 1.6 12.9 0.00 0.00 0.00 13 1004.2
20260503222524 35 293 4.8 12.9 0.00 0.00 0.00 13 1004.2
20260503222025 35 232 3.2 9.7 0.00 0.00 0.00 14 1004.3
20260503221523 34 329 0.0 8.0 0.00 0.00 0.00 13 1004.4
20260503221023 34 262 3.2 9.7 0.00 0.00 0.00 13 1004.6
20260503220521 34 186 1.6 11.3 0.00 0.00 0.00 13 1004.7
20260503220020 34 265 4.8 12.9 0.00 0.00 0.00 13 1004.9
20260503215520 34 277 4.8 12.9 0.00 0.00 0.00 13 1004.9
20260503215018 34 255 6.4 12.9 0.00 0.00 0.00 13 1005.1
20260503214535 34 274 3.2 11.3 0.00 0.00 0.00 13 1005.1
20260503214017 34 167 4.8 11.3 0.00 0.00 0.00 13 1005.2
20260503213516 34 284 3.2 12.9 0.00 0.00 0.00 13 1005.3
20260503213016 34 232 6.4 14.5 0.00 0.00 0.00 13 1005.4
20260503212518 34 266 1.6 14.5 0.00 0.00 0.00 13 1005.4
20260503212017 35 239 4.8 14.5 0.00 0.00 0.00 13 1005.5
20260503211515 35 325 8.0 14.5 0.00 0.00 0.00 13 1005.5
20260503211015 35 144 3.2 11.3 0.00 0.00 0.00 14 1005.5
20260503210514 35 206 3.2 14.5 0.00 0.00 0.00 13 1005.7
20260503210014 35 225 3.2 14.5 0.00 0.00 0.00 13 1005.7
20260503205513 35 244 3.2 14.5 0.00 0.00 0.00 13 1005.8
20260503205012 35 239 6.4 14.5 0.00 0.00 0.00 14 1005.9
20260503204511 34 241 3.2 12.9 0.00 0.00 0.00 13 1005.9
20260503204009 34 267 3.2 12.9 0.00 0.00 0.00 14 1006.0
20260503203508 34 274 4.8 16.1 0.00 0.00 0.00 13 1006.1
20260503203008 34 294 6.4 16.1 0.00 0.00 0.00 15 1006.2
20260503202508 34 144 0.0 9.7 0.00 0.00 0.00 15 1006.2
20260503202007 34 265 3.2 12.9 0.00 0.00 0.00 14 1006.3
20260503201507 34 226 3.2 12.9 0.00 0.00 0.00 14 1006.4
20260503201009 34 242 4.8 12.9 0.00 0.00 0.00 14 1006.4
20260503200505 34 215 3.2 11.3 0.00 0.00 0.00 14 1006.5
20260503200004 34 265 1.6 8.0 0.00 0.00 0.00 14 1006.6
20260503195503 34 253 1.6 12.9 0.00 0.00 0.00 14 1006.7
20260503195002 33 263 4.8 14.5 0.00 0.00 0.00 14 1006.8
20260503194502 34 192 4.8 14.5 0.00 0.00 0.00 14 1006.8
20260503194001 34 201 4.8 14.5 0.00 0.00 0.00 14 1006.9
20260503193601 33 171 3.2 12.9 0.00 0.00 0.00 15 1006.9
20260503193105 34 221 3.2 14.5 0.00 0.00 0.00 14 1007.0
20260503192558 33 229 1.6 14.5 0.00 0.00 0.00 14 1007.1
20260503192057 33 213 1.6 9.7 0.00 0.00 0.00 14 1007.2
20260503191605 33 145 0.0 11.3 0.00 0.00 0.00 15 1007.3
20260503191056 33 148 3.2 9.7 0.00 0.00 0.00 16 1007.5
20260503190555 33 215 3.2 9.7 0.00 0.00 0.00 16 1007.5
20260503190054 33 144 3.2 8.0 0.00 0.00 0.00 16 1007.4
20260503185552 33 192 1.6 9.7 0.00 0.00 0.00 16 1007.4
20260503185051 33 192 1.6 9.7 0.00 0.00 0.00 18 1007.5
20260503184600 33 163 3.2 9.7 0.00 0.00 0.00 18 1007.6
20260503184049 32 168 3.2 9.7 0.00 0.00 0.00 17 1007.8
20260503183549 32 189 1.6 8.0 0.00 0.00 0.00 19 1007.9
20260503183046 32 112 3.2 9.7 0.00 0.00 0.00 19 1008.0
20260503182545 32 355 1.6 12.9 0.00 0.00 0.00 21 1008.0
20260503182044 31 97 4.8 12.9 0.00 0.00 0.00 20 1008.2
20260503181607 31 185 4.8 14.5 0.00 0.00 0.00 20 1008.2
20260503181042 31 244 1.6 14.5 0.00 0.00 0.00 22 1008.2
20260503180541 31 109 3.2 11.3 0.00 0.00 0.00 20 1008.3
20260503180050 31 220 1.6 12.9 0.00 0.00 0.00 22 1008.5
20260503175538 31 90 4.8 14.5 0.00 0.00 0.00 22 1008.5
20260503175037 30 138 4.8 14.5 0.00 0.00 0.00 23 1008.6
20260503174545 30 95 4.8 14.5 0.00 0.00 0.00 22 1008.6
20260503174035 30 116 4.8 12.9 0.00 0.00 0.00 24 1008.6
20260503173533 30 136 3.2 14.5 0.00 0.00 0.00 24 1008.7
20260503173041 29 78 1.6 14.5 0.00 0.00 0.00 25 1008.8
20260503172530 29 162 4.8 12.9 0.00 0.00 0.00 25 1008.8
20260503172031 28 107 4.8 12.9 0.00 0.00 0.00 26 1008.8
20260503171527 28 72 4.8 17.7 0.00 0.00 0.00 26 1008.9
20260503171029 28 86 3.2 17.7 0.00 0.00 0.00 27 1008.9
20260503170530 28 130 4.8 12.9 0.00 0.00 0.00 27 1008.9
20260503151004 25 50 3.2 12.9 0.00 0.00 0.00 31 1008.7
20260503150507 25 81 6.4 12.9 0.00 0.00 0.00 30 1008.7
20260503131042 25 56 6.4 14.5 0.00 0.00 0.00 29 1007.8
20260503130541 25 45 6.4 14.5 0.00 0.00 0.00 28 1007.8
20260503110535 25 54 4.8 9.7 0.00 0.00 0.00 24 1007.7
20260503081535 24 35 0.0 4.8 0.00 0.00 0.00 24 1007.9
20260503081019 24 17 0.0 6.4 0.00 0.00 0.00 23 1008.0
20260503080519 24 5 0.0 6.4 0.00 0.00 0.00 22 1008.1
20260503072519 24 125 3.2 11.3 0.00 0.00 0.00 23 1008.3
20260503072015 24 104 0.0 0.0 0.00 0.00 0.00 24 1008.1
20260503071514 24 33 0.0 0.0 0.00 0.00 0.00 25 1007.9
20260503071013 24 33 0.0 0.0 0.00 0.00 0.00 25 1007.9
20260503070512 24 33 0.0 0.0 0.00 0.00 0.00 26 1007.8
20260503055009 24 360 0.0 3.2 0.00 0.00 0.00 28 1007.5